Location: Unspecified
(0.0000°N, 0.0000°E)
Time: 07:45:21
(UTC+00:00)

SJ-6F - Pass Details

Date: 10 August 2021
Orbit: 570 x 593 km, 97.8° (Epoch: 27 September)

Event Time Altitude Azimuth Distance (km) Brightness Sun altitude
Rises 04:42:48 0° 351° (N) 2,763 8.0 -19.9°
Reaches altitude 10° 04:45:13 10° 338° (NNW) 1,866 7.0 -19.3°
Enters shadow 04:47:01 20° 316° (NW) 1,343 6.0 -18.9°
